Location: Centereach
(40.8584°N, 73.0996°W)
Time: 15:44:55
(UTC+00:00)

Daily predictions for brighter satellites

Satellite Brightness Start Highest point End
(mag) Time Altitude Azimuth Time Altitude Azimuth Time Altitude Azimuth
SKYMED 2 4.4 22:21:31 10° NNE 22:25:25 32° E 22:29:17 10° SSE
Cosmos 1939 Rocket 3.3 22:25:29 10° SE 22:29:21 41° ENE 22:33:13 10° N
Cosmos 1943 3.7 22:29:14 10° NNW 22:34:52 69° WSW 22:40:27 10° SSE
Cosmos 1626 4.2 22:33:28 10° SW 22:36:44 29° WNW 22:40:02 10° NNW
Cosmos 1315 Rocket 3.3 22:35:56 10° NNW 22:39:54 65° W 22:43:52 10° S
Hubble Space Telescope 3.3 22:38:04 10° SSW 22:40:00 13° S 22:41:56 10° SE
Cosmos 2058 Rocket 3.4 22:36:15 10° N 22:40:34 43° ENE 22:44:51 10° SSE
Meteor 1-24 Rocket 4.0 22:37:32 10° SSW 22:42:52 69° W 22:48:10 10° N
Cosmos 1844 4.2 22:38:30 10° S 22:43:42 40° ESE 22:49:01 10° NE
X-37B 0.6 22:40:48 10° WSW 22:43:59 77° SSE 22:46:37 14° ENE
CZ-4 R/B 2.5 22:40:59 10° ESE 22:44:17 24° ENE 22:47:32 10° NNE
Cosmos 773 Rocket 4.1 22:40:42 10° NNW 22:45:52 81° WSW 22:50:58 10° SSE
H-2A R/B 2.9 22:42:46 10° ESE 22:46:48 25° ENE 22:50:55 10° NNE
CZ-2C R/B 3.3 22:46:29 10° SE 22:51:32 49° ENE 22:56:54 10° N
Cosmos 1726 Rocket 3.6 22:48:26 10° N 22:52:49 83° W 22:57:13 10° S
Okean 1-7 Rocket 3.7 22:48:25 10° S 22:52:52 60° E 22:57:23 10° NNE
Nadezhda 4 Rocket 4.1 22:47:41 10° SSE 22:53:45 55° E 22:59:47 10° NNE
MOS 1 Rocket 3.2 22:52:27 10° NNE 22:56:39 52° E 23:00:50 10° S
Cosmos 1626 Rocket 4.2 22:54:18 10° SSE 22:58:14 34° E 23:02:12 10° NNE
COSMOS 2455 3.2 22:54:31 10° SW 23:00:31 69° WNW 23:06:33 10° NNE
Cosmos 1818 3.5 22:55:24 10° SSW 23:00:48 81° ESE 23:06:17 10° NE
Cosmos 1844 Rocket 2.7 22:56:05 10° SSW 23:01:43 73° ESE 23:07:22 10° NNE
Feng Yun 1-1 Rocket 4.1 22:56:28 10° SSE 23:01:51 77° ENE 23:07:23 10° N
Meteor 2-13 Rocket 4.4 22:57:26 10° S 23:03:25 63° E 23:09:29 10° NNE
Iridium 4 Rocket 4.5 22:59:28 10° NNE 23:04:09 27° ENE 23:08:30 10° SE
CZ-2D R/B 3.1 23:00:54 10° SSE 23:04:43 70° ENE 23:08:34 10° N
CZ-4 R/B 4.4 23:00:45 10° SSE 23:04:48 61° ENE 23:08:54 10° N
ISS -3.2 23:06:04 10° WSW 23:09:23 51° NNW 23:11:21 21° NE
Cosmos 44 3.8 23:05:44 10° S 23:10:04 39° ESE 23:12:52 21° ENE
Aureole 2 Rocket 3.0 23:10:39 10° SW 23:13:32 47° WNW 23:16:32 10° N
COSMO-SKYMED 1 2.8 23:09:16 10° N 23:13:37 73° WNW 23:17:55 10° SSW
Meteor 2-10 Rocket 3.7 23:08:41 10° NNW 23:14:11 83° W 23:19:24 10° S
Cosmos 2278 Rocket 3.8 23:11:07 10° SE 23:13:17 15° ESE 23:13:17 15° ESE
Meteor 1-21 Rocket 4.1 23:12:25 10° S 23:17:52 67° E 23:23:22 10° NNE
Cosmos 1937 Rocket 4.4 23:15:17 10° SSE 23:19:45 28° E 23:21:04 25° ENE
Cosmos 1538 Rocket 4.4 23:18:36 10° NNW 23:23:43 66° WSW 23:28:49 10° S
CSL-04 Rocket 4.1 23:20:34 10° SE 23:25:31 39° ENE 23:30:35 10° N
Cosmos 1689 Rocket 1.8 23:25:19 44° NNE 23:26:03 73° ESE 23:28:53 10° S
Okean-O 2.5 23:23:29 10° SSE 23:27:52 67° ENE 23:32:17 10° N
Cosmos 2112 Rocket 4.4 23:23:02 10° N 23:27:56 38° ENE 23:30:20 24° ESE
Okean O Rocket 4.2 23:25:09 10° SSW 23:28:44 24° W 23:32:21 10° NW
Lacrosse 5 1.8 23:24:02 10° NW 23:29:03 63° NE 23:31:50 26° ESE
ATLAS 5 CENTAUR R/B 4.2 23:28:28 10° NW 23:29:59 12° NNW 23:31:33 10° N
Cosmos 2026 Rocket 4.1 23:24:45 10° SSE 23:30:34 49° E 23:36:29 10° NNE
Helios 1A Rocket 3.0 23:26:39 10° SSE 23:30:39 52° ENE 23:34:42 10° N
Cosmos 1455 2.1 23:27:13 10° N 23:31:02 87° W 23:34:52 10° S
Cosmos 1340 2.8 23:28:55 10° SSE 23:32:30 45° E 23:32:34 45° E
Aureole 3 2.8 23:33:33 10° NNW 23:36:52 74° W 23:39:50 10° S
NOSS 2-1 (E) 3.0 23:34:14 10° SSW 23:37:25 53° SE 23:37:25 53° SE
Cosmos 1602 Rocket 3.4 23:34:27 10° S 23:38:44 71° E 23:41:52 18° NNE
YAOGAN 1 2.5 23:38:01 10° SSE 23:42:20 88° WSW 23:46:41 10° NNW
Cosmos 1703 3.1 23:38:28 10° S 23:42:21 89° WNW 23:44:38 24° N
CZ-4B R/B 4.0 23:39:56 10° NNW 23:42:29 21° WNW 23:45:01 10° WSW
ERS-2 3.0 23:38:59 10° N 23:42:30 48° WNW 23:46:00 10° SSW
Meteor 2-8 Rocket 4.3 23:47:28 10° N 23:53:34 72° E 23:59:40 10° SSE
